Content
SEND FEEDBACK

Daily
Averages
Monthly
Summary
United States of America

ANTHONY, TEXAS


Home > North America > United States > Texas
Elevation: 3803 feet     Latitude: 31 58N     Longitude: 106 36W

WEATHER
 
SELECT A DAY
Number of Records: 176,858;   Date Range: 1/1/95 - 9/29/14
 
SHARE

PRINT THIS DATA

[ ← Previous Day ]
WEATHER ALMANAC - JANUARY 31, 2013
[ Next Day → ]
[ °C ]   °F
Weather ElementAverageHighLow
Temperature41.3 °F55 °F (1:51 pm)25 °F (4:51 am)
Dewpoint14 °F18 °F (9:51 pm)8.1 °F (4:51 am)
Humidity34.8 %51 % (6:51 am)22 % (1:51 pm)
Barometer30.20 in30.27 in (8:51 am)30.14 in (5:51 pm)
Wind Speed2.5 mph6.9 mph (2:51 am)
Weather ElementAverage
Visibility10 mi
Wind DirectionENE (68.7 °)

Weather ElementTotal
Precipitation---
Heating Degree Days25 (Base 65)
Averaged from 23 records on January 31, 2013
WEATHER CONDITIONS BREAKOUT
WIND DIRECTION BREAKOUT
WEATHER BY HOUR - JANUARY 31, 2013
[ °C ]   °F
Local TimeTemperatureDewpointHumidityBarometerVisibilityWind DirectionWind SpeedGust SpeedPrecipitationEventsConditions
1:51 AM30.9 °F10.0 °F42 %30.18 in10.0 miCalmClear
2:51 AM30.0 °F9.0 °F41 %30.19 in10.0 miNorth (10°)6.9 mphPartly Cloudy
3:51 AM28.9 °F9.0 °F43 %30.19 in10.0 miNNE (20°)6.9 mphPartly Cloudy
4:51 AM25.0 °F8.1 °F49 %30.19 in10.0 miCalmPartly Cloudy
5:51 AM28.0 °F9.0 °F45 %30.20 in10.0 miCalmPartly Cloudy
6:51 AM26.1 °F10.0 °F51 %30.23 in10.0 miCalmScattered Clouds
7:51 AM28.0 °F12.0 °F51 %30.25 in10.0 miNE (40°)4.6 mphScattered Clouds
8:51 AM34.0 °F14.0 °F44 %30.27 in10.0 miCalmMostly Cloudy
9:51 AM41.0 °F15.1 °F35 %30.25 in10.0 miCalmScattered Clouds
10:51 AM46.0 °F15.1 °F29 %30.24 in10.0 miCalmMostly Cloudy
11:51 AM48.0 °F15.1 °F27 %30.24 in10.0 miSouth (180°)3.5 mphOvercast
12:51 PM52.0 °F15.1 °F23 %30.20 in10.0 miNorth (360°)5.8 mphOvercast
1:51 PM55.0 °F16.0 °F22 %30.16 in10.0 miVariable3.5 mphMostly Cloudy
2:51 PM54.0 °F15.1 °F22 %30.16 in10.0 miSSE (160°)4.6 mphMostly Cloudy
3:51 PM55.0 °F16.0 °F22 %30.15 in10.0 miWSW (250°)3.5 mphOvercast
4:51 PM55.0 °F16.0 °F22 %30.15 in10.0 miCalmOvercast
5:51 PM53.1 °F17.1 °F24 %30.14 in10.0 miCalmMostly Cloudy
6:51 PM48.9 °F17.1 °F28 %30.18 in10.0 miSSE (150°)4.6 mphMostly Cloudy
7:51 PM48.0 °F17.1 °F29 %30.19 in10.0 miSouth (190°)4.6 mphOvercast
8:51 PM45.0 °F17.1 °F33 %30.19 in10.0 miCalmOvercast
9:51 PM45.0 °F18.0 °F34 %30.19 in10.0 miCalmOvercast
10:51 PM37.9 °F16.0 °F41 %30.19 in10.0 miEast (80°)3.5 mphMostly Cloudy
11:51 PM36.0 °F16.0 °F44 %30.18 in10.0 miSE (140°)4.6 mphPartly Cloudy
Hourly data recorded from KBIF, located miles away from Anthony, Texas







STORIES FROM OUR PARTNERS